Regional Weather Roundup
Issued by NWS

Home | Current Version | Previous Version | Graphics & Text | Print | Product List | Glossary On
Versions: 1 2 3 4 5 6 7 8 9 10 11 12 13 14 15 16 17 18 19 20 21 22 23 24 25 26 27 28 29 30 31 32 33 34 35 36 37 38 39 40 41 42 43 44 45 46 47 48 49 50
000
ASUS43 KDTX 260710
RWRMI
MICHIGAN HOURLY REGIONAL WEATHER ROUNDUP
NATIONAL WEATHER SERVICE DETROIT/PONTIAC MI
200 AM EST SUN FEB 26 2017

NOTE: "FAIR" INDICATES FEW OR NO CLOUDS BELOW 12,000 FEET WITH NO
SIGNIFICANT WEATHER AND/OR OBSTRUCTION TO VISIBILITY.

MIZ047>049-052>055-059>063-066>070-074>076-081>083-260800-
SOUTHEAST LOWER MICHIGAN

CITY           SKY/WX    TMP DP  RH WIND       PRES   REMARKS
ADRIAN         CLOUDY    24  16  71 NW6       30.03R WCI  17
ALMA           CLOUDY    24  16  73 SW6       29.98R WCI  17
ANN ARBOR      FLURRIES  23  16  74 W9        30.00R WCI  13
BAD AXE        FLURRIES  26  18  72 W10G18    29.92S WCI  15
CARO           CLOUDY    25  17  73 W12       29.94R WCI  14
DETROIT CITY   CLOUDY    24  15  68 W8        30.00R WCI  15
DETROIT        FLURRIES  25  15  66 W10       30.02R WCI  15
FLINT          CLOUDY    24  14  65 W12       29.98R WCI  13
GROSSE ILE     CLOUDY    26  15  64 W8        30.01R WCI  17
HILLSDALE      LGT SNOW  23  19  86 W5        29.99R WCI  17
HOWELL         FLURRIES  24  17  76 W9        29.98R WCI  14

CITY           SKY/WX    TMP DP  RH WIND       PRES   REMARKS
JACKSON        CLOUDY    23  16  74 W8        29.99R WCI  14
LAMBERTVILLE   CLOUDY    27  16  63 W10       30.03S WCI  17
LANSING        LGT SNOW  24  14  65 W10       30.00R WCI  14
LAPEER         CLOUDY    25  15  65 W10G16    29.96R WCI  15
MASON          FLURRIES  24  19  81 W8        29.99R WCI  15
MONROE         CLOUDY    26  17  69 W10G16    30.02R WCI  16
MT. CLEMENS    CLOUDY    26  14  62 W13       29.97R WCI  14
PONTIAC        FLURRIES  23  16  74 W9        29.96R WCI  13
PORT HOPE        N/A     27  17  66 W8G18     29.89S WCI  19
PORT HURON     CLOUDY    25  16  68 W7        29.96R WCI  17
TRI CITIES     CLOUDY    25  17  72 W14       29.96R WCI  13
MIDLAND        CLOUDY    26  16  66 W6        29.95S WCI  19
TROY           FLURRIES  26  14  61 W6        30.01R WCI  19
SAGINAW HB     CLOUDY    27  18  69 W9        29.96S WCI  17
$$
MIZ043>046-050>051-056>058-064>065-071>073-077>080-260800-
SOUTHWEST LOWER MICHIGAN

CITY           SKY/WX    TMP DP  RH WIND       PRES   REMARKS
BATTLE CREEK   CLOUDY    24  18  77 W7        30.00R WCI  16
BENTON HARBOR  CLOUDY    28  15  58 VRB7      30.04R WCI  21
BIG RAPIDS     CLEAR     19  14  83 CALM      29.93R
COLDWATER      LGT SNOW  24  21  90 SW7       30.01S WCI  16
FREMONT        FAIR      17  13  86 SW6       29.96R WCI   8
HOLLAND        CLOUDY    28  16  60 W8        30.01R WCI  20
GRAND RAPIDS   CLEAR     22  14  71 SW6       29.99R WCI  14
IONIA          FAIR      19  14  82 SW6       29.98R WCI  10
KALAMAZOO      CLOUDY    25  16  68 SW5       30.01R WCI  19
LUDINGTON      CLEAR     27  17  67 W8        29.94R WCI  18
MARSHALL       FLURRIES  24  18  80 W5        30.00R WCI  18
MOUNT PLEASANT MOCLDY    23  17  77 W6        29.95R WCI  16
MUSKEGON       CLOUDY    28  17  63 W9        29.99R WCI  19
SOUTH HAVEN    CLOUDY    28  16  63 NW3       30.02S
$$
MIZ016>042-260800-
NORTHERN LOWER MICHIGAN

CITY           SKY/WX    TMP DP  RH WIND       PRES   REMARKS
ALPENA         CLOUDY    24  16  71 SW7       29.88R WCI  16
BEAVER ISLAND  CLEAR     26  17  69 W12G17    29.85S WCI  15
BELLAIRE       CLOUDY    26  16  64 SW5       29.90S WCI  21
CADILLAC       CLEAR     12  10  90 CALM      29.88R
CHARLEVOIX     PTCLDY    26  15  63 W13       29.90S WCI  15
FRANKFORT      CLEAR     28  17  63 NW13G20   29.90S WCI  17
GAYLORD        FLURRIES  21  13  71 SW7       29.84R WCI  12
GRAYLING       CLOUDY    22  14  71 SW6       29.88R WCI  15
HARBOR SPRINGS PTCLDY    25  12  58 W8        29.86S WCI  16
HOUGHTON LAKE  CLOUDY    22  14  71 W8        29.90R WCI  12
MANISTEE       CLEAR     27  15  61 W14       29.92S WCI  16
OSCODA         LGT SNOW  25  19  78 W17       29.91R VSB 1   WCI  12
PELLSTON       CLEAR     24  11  57 W6        29.85S WCI  17
TRAVERSE CITY  CLEAR     18  14  84 CALM      29.90S
$$
MIZ007>008-015-260800-
EASTERN UPPER MICHIGAN

CITY           SKY/WX    TMP DP  RH WIND       PRES   REMARKS
KINROSS        CLOUDY    19  14  81 W9G16     29.80S WCI   8
MACKINAC ISLAN CLOUDY    24  17  74 W10G20    29.82S WCI  13
NEWBERRY       MOCLDY    17  11  77 SW12      29.80S WCI   4
S. S. MARIE    LGT SNOW  21  17  84 W8        29.79R FOG     WCI  11
MUNISING         N/A     20  11  68 SW9       29.80F WCI   9
$$
MIZ004>006-011>014-085-260800-
CENTRAL UPPER MICHIGAN

CITY           SKY/WX    TMP DP  RH WIND       PRES   REMARKS
MANISTIQUE     MOCLDY    16  11  80 W5        29.84R WCI   9
ESCANABA       CLEAR     11   7  84 W7        29.85F WCI   0
MENOMINEE      CLEAR     16   9  74 SW7       29.90S WCI   6
SAWYER-GWINN   PTCLDY    15   9  79 S6        29.78S WCI   6
$$
MIZ001>003-009>011-084-260800-
WESTERN UPPER MICHIGAN

CITY           SKY/WX    TMP DP  RH WIND       PRES   REMARKS
IRON MOUNTAIN  CLEAR     18   8  65 SW8       29.80R WCI   8
HOUGHTON       MOCLDY    21  11  65 SW9       29.70F WCI  11
COPPER HARBOR    N/A     24  21  88 SW6       29.72F WCI  17
IRONWOOD       CLOUDY    22  16  78 SW8       29.72F WCI  12
$$

ABBREVIATIONS USED IN REMARKS
   TC - TEMPERATURE IN CELSIUS
  WCI - WIND CHILL INDEX
   HX - HEAT INDEX
  VSB - VISIBILITY





USA.gov is the U.S. government's official web portal to all federal, state and local government web resources and services.